Index of /20260508/WXO-DD/model_gdps/15km/00/045
Name Last modified Size Description
Parent Directory -
20260508T00Z_MSC_GDPS_AbsoluteVorticity_IsbL-0200_LatLon0.15_PT045H.grib2 2026-05-08 04:05 1.5M
20260508T00Z_MSC_GDPS_AbsoluteVorticity_IsbL-0250_LatLon0.15_PT045H.grib2 2026-05-08 04:05 1.3M
20260508T00Z_MSC_GDPS_AbsoluteVorticity_IsbL-0500_LatLon0.15_PT045H.grib2 2026-05-08 04:05 1.2M
20260508T00Z_MSC_GDPS_AbsoluteVorticity_IsbL-0700_LatLon0.15_PT045H.grib2 2026-05-08 04:05 1.3M
20260508T00Z_MSC_GDPS_AbsoluteVorticity_IsbL-0850_LatLon0.15_PT045H.grib2 2026-05-08 04:05 1.6M
20260508T00Z_MSC_GDPS_AirTemp_AGL-120m_LatLon0.15_PT045H.grib2 2026-05-08 04:05 904K
20260508T00Z_MSC_GDPS_AirTemp_AGL-2m_LatLon0.15_PT045H.grib2 2026-05-08 04:05 1.0M
20260508T00Z_MSC_GDPS_AirTemp_AGL-40m_LatLon0.15_PT045H.grib2 2026-05-08 04:05 810K
20260508T00Z_MSC_GDPS_AirTemp_AGL-80m_LatLon0.15_PT045H.grib2 2026-05-08 04:05 914K
20260508T00Z_MSC_GDPS_AirTemp_IsbL-0001_LatLon0.15_PT045H.grib2 2026-05-08 04:05 670K
20260508T00Z_MSC_GDPS_AirTemp_IsbL-0005_LatLon0.15_PT045H.grib2 2026-05-08 04:05 540K
20260508T00Z_MSC_GDPS_AirTemp_IsbL-0010_LatLon0.15_PT045H.grib2 2026-05-08 04:05 708K
20260508T00Z_MSC_GDPS_AirTemp_IsbL-0020_LatLon0.15_PT045H.grib2 2026-05-08 04:05 728K
20260508T00Z_MSC_GDPS_AirTemp_IsbL-0030_LatLon0.15_PT045H.grib2 2026-05-08 04:05 848K
20260508T00Z_MSC_GDPS_AirTemp_IsbL-0050_LatLon0.15_PT045H.grib2 2026-05-08 04:05 896K
20260508T00Z_MSC_GDPS_AirTemp_IsbL-0100_LatLon0.15_PT045H.grib2 2026-05-08 04:05 970K
20260508T00Z_MSC_GDPS_AirTemp_IsbL-0150_LatLon0.15_PT045H.grib2 2026-05-08 04:05 1.0M
20260508T00Z_MSC_GDPS_AirTemp_IsbL-0175_LatLon0.15_PT045H.grib2 2026-05-08 04:05 1.0M
20260508T00Z_MSC_GDPS_AirTemp_IsbL-0200_LatLon0.15_PT045H.grib2 2026-05-08 04:05 1.0M
20260508T00Z_MSC_GDPS_AirTemp_IsbL-0225_LatLon0.15_PT045H.grib2 2026-05-08 04:05 1.0M
20260508T00Z_MSC_GDPS_AirTemp_IsbL-0250_LatLon0.15_PT045H.grib2 2026-05-08 04:05 1.0M
20260508T00Z_MSC_GDPS_AirTemp_IsbL-0275_LatLon0.15_PT045H.grib2 2026-05-08 04:05 1.0M
20260508T00Z_MSC_GDPS_AirTemp_IsbL-0300_LatLon0.15_PT045H.grib2 2026-05-08 04:05 1.0M
20260508T00Z_MSC_GDPS_AirTemp_IsbL-0350_LatLon0.15_PT045H.grib2 2026-05-08 04:05 939K
20260508T00Z_MSC_GDPS_AirTemp_IsbL-0400_LatLon0.15_PT045H.grib2 2026-05-08 04:05 951K
20260508T00Z_MSC_GDPS_AirTemp_IsbL-0450_LatLon0.15_PT045H.grib2 2026-05-08 04:05 973K
20260508T00Z_MSC_GDPS_AirTemp_IsbL-0500_LatLon0.15_PT045H.grib2 2026-05-08 04:05 776K
20260508T00Z_MSC_GDPS_AirTemp_IsbL-0550_LatLon0.15_PT045H.grib2 2026-05-08 04:05 812K
20260508T00Z_MSC_GDPS_AirTemp_IsbL-0600_LatLon0.15_PT045H.grib2 2026-05-08 04:05 901K
20260508T00Z_MSC_GDPS_AirTemp_IsbL-0650_LatLon0.15_PT045H.grib2 2026-05-08 04:05 926K
20260508T00Z_MSC_GDPS_AirTemp_IsbL-0700_LatLon0.15_PT045H.grib2 2026-05-08 04:05 956K
20260508T00Z_MSC_GDPS_AirTemp_IsbL-0750_LatLon0.15_PT045H.grib2 2026-05-08 04:05 1.0M
20260508T00Z_MSC_GDPS_AirTemp_IsbL-0800_LatLon0.15_PT045H.grib2 2026-05-08 04:05 1.1M
20260508T00Z_MSC_GDPS_AirTemp_IsbL-0850_LatLon0.15_PT045H.grib2 2026-05-08 04:05 1.1M
20260508T00Z_MSC_GDPS_AirTemp_IsbL-0875_LatLon0.15_PT045H.grib2 2026-05-08 04:05 1.2M
20260508T00Z_MSC_GDPS_AirTemp_IsbL-0900_LatLon0.15_PT045H.grib2 2026-05-08 04:05 1.1M
20260508T00Z_MSC_GDPS_AirTemp_IsbL-0925_LatLon0.15_PT045H.grib2 2026-05-08 04:05 1.1M
20260508T00Z_MSC_GDPS_AirTemp_IsbL-0950_LatLon0.15_PT045H.grib2 2026-05-08 04:05 1.1M
20260508T00Z_MSC_GDPS_AirTemp_IsbL-0970_LatLon0.15_PT045H.grib2 2026-05-08 04:05 1.1M
20260508T00Z_MSC_GDPS_AirTemp_IsbL-0985_LatLon0.15_PT045H.grib2 2026-05-08 04:05 1.1M
20260508T00Z_MSC_GDPS_AirTemp_IsbL-1000_LatLon0.15_PT045H.grib2 2026-05-08 04:05 1.1M
20260508T00Z_MSC_GDPS_AirTemp_IsbL-1015_LatLon0.15_PT045H.grib2 2026-05-08 04:05 1.1M
20260508T00Z_MSC_GDPS_Albedo_Sfc_LatLon0.15_PT045H.grib2 2026-05-08 04:05 244K
20260508T00Z_MSC_GDPS_CAPE_Sfc_LatLon0.15_PT045H.grib2 2026-05-08 04:05 3.9M
20260508T00Z_MSC_GDPS_CIN_Sfc_LatLon0.15_PT045H.grib2 2026-05-08 04:05 2.8M
20260508T00Z_MSC_GDPS_CloudWater_EAtm_LatLon0.15_PT045H.grib2 2026-05-08 04:05 540K
20260508T00Z_MSC_GDPS_ConvectivePrecip-Accum_Sfc_LatLon0.15_PT045H.grib2 2026-05-08 04:05 2.9M
20260508T00Z_MSC_GDPS_DewPointDepression_AGL-2m_LatLon0.15_PT045H.grib2 2026-05-08 04:05 760K
20260508T00Z_MSC_GDPS_DewPointDepression_IsbL-0010_LatLon0.15_PT045H.grib2 2026-05-08 04:05 68K
20260508T00Z_MSC_GDPS_DewPointDepression_IsbL-0020_LatLon0.15_PT045H.grib2 2026-05-08 04:05 91K
20260508T00Z_MSC_GDPS_DewPointDepression_IsbL-0030_LatLon0.15_PT045H.grib2 2026-05-08 04:05 101K
20260508T00Z_MSC_GDPS_DewPointDepression_IsbL-0050_LatLon0.15_PT045H.grib2 2026-05-08 04:05 388K
20260508T00Z_MSC_GDPS_DewPointDepression_IsbL-0100_LatLon0.15_PT045H.grib2 2026-05-08 04:05 405K
20260508T00Z_MSC_GDPS_DewPointDepression_IsbL-0150_LatLon0.15_PT045H.grib2 2026-05-08 04:05 510K
20260508T00Z_MSC_GDPS_DewPointDepression_IsbL-0175_LatLon0.15_PT045H.grib2 2026-05-08 04:05 610K
20260508T00Z_MSC_GDPS_DewPointDepression_IsbL-0200_LatLon0.15_PT045H.grib2 2026-05-08 04:05 700K
20260508T00Z_MSC_GDPS_DewPointDepression_IsbL-0225_LatLon0.15_PT045H.grib2 2026-05-08 04:05 792K
20260508T00Z_MSC_GDPS_DewPointDepression_IsbL-0250_LatLon0.15_PT045H.grib2 2026-05-08 04:05 898K
20260508T00Z_MSC_GDPS_DewPointDepression_IsbL-0275_LatLon0.15_PT045H.grib2 2026-05-08 04:05 922K
20260508T00Z_MSC_GDPS_DewPointDepression_IsbL-0300_LatLon0.15_PT045H.grib2 2026-05-08 04:05 958K
20260508T00Z_MSC_GDPS_DewPointDepression_IsbL-0350_LatLon0.15_PT045H.grib2 2026-05-08 04:05 972K
20260508T00Z_MSC_GDPS_DewPointDepression_IsbL-0400_LatLon0.15_PT045H.grib2 2026-05-08 04:05 1.0M
20260508T00Z_MSC_GDPS_DewPointDepression_IsbL-0450_LatLon0.15_PT045H.grib2 2026-05-08 04:05 1.0M
20260508T00Z_MSC_GDPS_DewPointDepression_IsbL-0500_LatLon0.15_PT045H.grib2 2026-05-08 04:05 1.0M
20260508T00Z_MSC_GDPS_DewPointDepression_IsbL-0550_LatLon0.15_PT045H.grib2 2026-05-08 04:05 1.0M
20260508T00Z_MSC_GDPS_DewPointDepression_IsbL-0600_LatLon0.15_PT045H.grib2 2026-05-08 04:05 1.0M
20260508T00Z_MSC_GDPS_DewPointDepression_IsbL-0650_LatLon0.15_PT045H.grib2 2026-05-08 04:05 1.1M
20260508T00Z_MSC_GDPS_DewPointDepression_IsbL-0700_LatLon0.15_PT045H.grib2 2026-05-08 04:05 1.1M
20260508T00Z_MSC_GDPS_DewPointDepression_IsbL-0750_LatLon0.15_PT045H.grib2 2026-05-08 04:05 1.1M
20260508T00Z_MSC_GDPS_DewPointDepression_IsbL-0800_LatLon0.15_PT045H.grib2 2026-05-08 04:05 1.2M
20260508T00Z_MSC_GDPS_DewPointDepression_IsbL-0850_LatLon0.15_PT045H.grib2 2026-05-08 04:05 1.1M
20260508T00Z_MSC_GDPS_DewPointDepression_IsbL-0875_LatLon0.15_PT045H.grib2 2026-05-08 04:05 1.1M
20260508T00Z_MSC_GDPS_DewPointDepression_IsbL-0900_LatLon0.15_PT045H.grib2 2026-05-08 04:05 1.1M
20260508T00Z_MSC_GDPS_DewPointDepression_IsbL-0925_LatLon0.15_PT045H.grib2 2026-05-08 04:05 1.0M
20260508T00Z_MSC_GDPS_DewPointDepression_IsbL-0950_LatLon0.15_PT045H.grib2 2026-05-08 04:05 1.0M
20260508T00Z_MSC_GDPS_DewPointDepression_IsbL-0970_LatLon0.15_PT045H.grib2 2026-05-08 04:05 1.0M
20260508T00Z_MSC_GDPS_DewPointDepression_IsbL-0985_LatLon0.15_PT045H.grib2 2026-05-08 04:05 970K
20260508T00Z_MSC_GDPS_DewPointDepression_IsbL-1000_LatLon0.15_PT045H.grib2 2026-05-08 04:05 957K
20260508T00Z_MSC_GDPS_DewPointDepression_IsbL-1015_LatLon0.15_PT045H.grib2 2026-05-08 04:05 902K
20260508T00Z_MSC_GDPS_DewPoint_AGL-2m_LatLon0.15_PT045H.grib2 2026-05-08 04:05 603K
20260508T00Z_MSC_GDPS_DownwardLongwaveRadiationFlux-Accum_Sfc_LatLon0.15_PT045H.grib2 2026-05-08 04:05 775K
20260508T00Z_MSC_GDPS_DownwardShortwaveRadiationFlux-Accum_NTAtm_LatLon0.15_PT045H.grib2 2026-05-08 04:05 254K
20260508T00Z_MSC_GDPS_DownwardShortwaveRadiationFlux-Accum_Sfc_LatLon0.15_PT045H.grib2 2026-05-08 04:05 1.0M
20260508T00Z_MSC_GDPS_FreezingRain-Accum1h_Sfc_LatLon0.15_PT045H.grib2 2026-05-08 04:05 28K
20260508T00Z_MSC_GDPS_FreezingRain-Accum3h_Sfc_LatLon0.15_PT045H.grib2 2026-05-08 04:05 29K
20260508T00Z_MSC_GDPS_FreezingRain-Accum_Sfc_LatLon0.15_PT045H.grib2 2026-05-08 04:05 194K
20260508T00Z_MSC_GDPS_GeopotentialHeight_IsbL-0001_LatLon0.15_PT045H.grib2 2026-05-08 04:05 452K
20260508T00Z_MSC_GDPS_GeopotentialHeight_IsbL-0005_LatLon0.15_PT045H.grib2 2026-05-08 04:05 491K
20260508T00Z_MSC_GDPS_GeopotentialHeight_IsbL-0010_LatLon0.15_PT045H.grib2 2026-05-08 04:05 480K
20260508T00Z_MSC_GDPS_GeopotentialHeight_IsbL-0020_LatLon0.15_PT045H.grib2 2026-05-08 04:05 417K
20260508T00Z_MSC_GDPS_GeopotentialHeight_IsbL-0030_LatLon0.15_PT045H.grib2 2026-05-08 04:05 424K
20260508T00Z_MSC_GDPS_GeopotentialHeight_IsbL-0050_LatLon0.15_PT045H.grib2 2026-05-08 04:05 582K
20260508T00Z_MSC_GDPS_GeopotentialHeight_IsbL-0100_LatLon0.15_PT045H.grib2 2026-05-08 04:05 619K
20260508T00Z_MSC_GDPS_GeopotentialHeight_IsbL-0150_LatLon0.15_PT045H.grib2 2026-05-08 04:05 635K
20260508T00Z_MSC_GDPS_GeopotentialHeight_IsbL-0175_LatLon0.15_PT045H.grib2 2026-05-08 04:05 639K
20260508T00Z_MSC_GDPS_GeopotentialHeight_IsbL-0200_LatLon0.15_PT045H.grib2 2026-05-08 04:05 642K
20260508T00Z_MSC_GDPS_GeopotentialHeight_IsbL-0225_LatLon0.15_PT045H.grib2 2026-05-08 04:05 636K
20260508T00Z_MSC_GDPS_GeopotentialHeight_IsbL-0250_LatLon0.15_PT045H.grib2 2026-05-08 04:05 646K
20260508T00Z_MSC_GDPS_GeopotentialHeight_IsbL-0275_LatLon0.15_PT045H.grib2 2026-05-08 04:05 645K
20260508T00Z_MSC_GDPS_GeopotentialHeight_IsbL-0300_LatLon0.15_PT045H.grib2 2026-05-08 04:05 638K
20260508T00Z_MSC_GDPS_GeopotentialHeight_IsbL-0350_LatLon0.15_PT045H.grib2 2026-05-08 04:05 633K
20260508T00Z_MSC_GDPS_GeopotentialHeight_IsbL-0400_LatLon0.15_PT045H.grib2 2026-05-08 04:05 626K
20260508T00Z_MSC_GDPS_GeopotentialHeight_IsbL-0450_LatLon0.15_PT045H.grib2 2026-05-08 04:05 616K
20260508T00Z_MSC_GDPS_GeopotentialHeight_IsbL-0500_LatLon0.15_PT045H.grib2 2026-05-08 04:05 602K
20260508T00Z_MSC_GDPS_GeopotentialHeight_IsbL-0550_LatLon0.15_PT045H.grib2 2026-05-08 04:05 532K
20260508T00Z_MSC_GDPS_GeopotentialHeight_IsbL-0600_LatLon0.15_PT045H.grib2 2026-05-08 04:05 529K
20260508T00Z_MSC_GDPS_GeopotentialHeight_IsbL-0650_LatLon0.15_PT045H.grib2 2026-05-08 04:05 528K
20260508T00Z_MSC_GDPS_GeopotentialHeight_IsbL-0700_LatLon0.15_PT045H.grib2 2026-05-08 04:05 527K
20260508T00Z_MSC_GDPS_GeopotentialHeight_IsbL-0750_LatLon0.15_PT045H.grib2 2026-05-08 04:05 697K
20260508T00Z_MSC_GDPS_GeopotentialHeight_IsbL-0800_LatLon0.15_PT045H.grib2 2026-05-08 04:05 712K
20260508T00Z_MSC_GDPS_GeopotentialHeight_IsbL-0850_LatLon0.15_PT045H.grib2 2026-05-08 04:05 717K
20260508T00Z_MSC_GDPS_GeopotentialHeight_IsbL-0875_LatLon0.15_PT045H.grib2 2026-05-08 04:05 726K
20260508T00Z_MSC_GDPS_GeopotentialHeight_IsbL-0900_LatLon0.15_PT045H.grib2 2026-05-08 04:05 731K
20260508T00Z_MSC_GDPS_GeopotentialHeight_IsbL-0925_LatLon0.15_PT045H.grib2 2026-05-08 04:05 739K
20260508T00Z_MSC_GDPS_GeopotentialHeight_IsbL-0950_LatLon0.15_PT045H.grib2 2026-05-08 04:05 743K
20260508T00Z_MSC_GDPS_GeopotentialHeight_IsbL-0970_LatLon0.15_PT045H.grib2 2026-05-08 04:05 757K
20260508T00Z_MSC_GDPS_GeopotentialHeight_IsbL-0985_LatLon0.15_PT045H.grib2 2026-05-08 04:05 772K
20260508T00Z_MSC_GDPS_GeopotentialHeight_IsbL-1000_LatLon0.15_PT045H.grib2 2026-05-08 04:05 792K
20260508T00Z_MSC_GDPS_GeopotentialHeight_IsbL-1015_LatLon0.15_PT045H.grib2 2026-05-08 04:05 813K
20260508T00Z_MSC_GDPS_Humidex_Sfc_LatLon0.15_PT045H.grib2 2026-05-08 04:05 5.3M
20260508T00Z_MSC_GDPS_IcePellets-Accum1h_Sfc_LatLon0.15_PT045H.grib2 2026-05-08 04:05 18K
20260508T00Z_MSC_GDPS_IcePellets-Accum3h_Sfc_LatLon0.15_PT045H.grib2 2026-05-08 04:05 17K
20260508T00Z_MSC_GDPS_IcePellets-Accum_Sfc_LatLon0.15_PT045H.grib2 2026-05-08 04:05 54K
20260508T00Z_MSC_GDPS_KIndex_Sfc_LatLon0.15_PT045H.grib2 2026-05-08 04:05 6.5M
20260508T00Z_MSC_GDPS_LatentHeatNetFlux_Sfc_LatLon0.15_PT045H.grib2 2026-05-08 04:05 682K
20260508T00Z_MSC_GDPS_LiftedIndex-MU-VT_IsbL-0500_LatLon0.15_PT045H.grib2 2026-05-08 04:05 5.4M
20260508T00Z_MSC_GDPS_NetLongwaveRadiationFlux-Accum_Sfc_LatLon0.15_PT045H.grib2 2026-05-08 04:05 1.1M
20260508T00Z_MSC_GDPS_NetShortwaveRadiationFlux-Accum_Sfc_LatLon0.15_PT045H.grib2 2026-05-08 04:05 1.0M
20260508T00Z_MSC_GDPS_O3MixingRatio_Sfc_LatLon0.15_PT045H.grib2 2026-05-08 04:49 2.0M
20260508T00Z_MSC_GDPS_O3_EAtm_LatLon0.15_PT045H.grib2 2026-05-08 04:49 2.5M
20260508T00Z_MSC_GDPS_PlanetaryBoundaryLayerHeight_Sfc_LatLon0.15_PT045H.grib2 2026-05-08 04:05 2.4M
20260508T00Z_MSC_GDPS_Precip-Accum1h_Sfc_LatLon0.15_PT045H.grib2 2026-05-08 04:05 3.3M
20260508T00Z_MSC_GDPS_Precip-Accum3h_Sfc_LatLon0.15_PT045H.grib2 2026-05-08 04:05 3.5M
20260508T00Z_MSC_GDPS_Precip-Accum_Sfc_LatLon0.15_PT045H.grib2 2026-05-08 04:05 4.9M
20260508T00Z_MSC_GDPS_PrecipRate_Sfc_LatLon0.15_PT045H.grib2 2026-05-08 04:05 3.1M
20260508T00Z_MSC_GDPS_PrecipType-Instant_Sfc_LatLon0.15_PT045H.grib2 2026-05-08 04:05 1.6M
20260508T00Z_MSC_GDPS_Pressure_MSL_LatLon0.15_PT045H.grib2 2026-05-08 04:05 828K
20260508T00Z_MSC_GDPS_Pressure_PVU-1.5_LatLon0.15_PT045H.grib2 2026-05-08 04:05 5.8M
20260508T00Z_MSC_GDPS_Pressure_PVU-1_LatLon0.15_PT045H.grib2 2026-05-08 04:05 6.0M
20260508T00Z_MSC_GDPS_Pressure_PVU-2_LatLon0.15_PT045H.grib2 2026-05-08 04:05 5.6M
20260508T00Z_MSC_GDPS_Pressure_Sfc_LatLon0.15_PT045H.grib2 2026-05-08 04:05 1.1M
20260508T00Z_MSC_GDPS_RadiativeTemp_Sfc_LatLon0.15_PT045H.grib2 2026-05-08 04:05 649K
20260508T00Z_MSC_GDPS_Rain-Accum1h_Sfc_LatLon0.15_PT045H.grib2 2026-05-08 04:05 1.7M
20260508T00Z_MSC_GDPS_Rain-Accum3h_Sfc_LatLon0.15_PT045H.grib2 2026-05-08 04:05 1.7M
20260508T00Z_MSC_GDPS_Rain-Accum_Sfc_LatLon0.15_PT045H.grib2 2026-05-08 04:05 3.7M
20260508T00Z_MSC_GDPS_RelativeHumidity_AGL-2m_LatLon0.15_PT045H.grib2 2026-05-08 04:05 1.0M
20260508T00Z_MSC_GDPS_RelativeHumidity_IsbL-0010_LatLon0.15_PT045H.grib2 2026-05-08 04:05 162K
20260508T00Z_MSC_GDPS_RelativeHumidity_IsbL-0020_LatLon0.15_PT045H.grib2 2026-05-08 04:05 179K
20260508T00Z_MSC_GDPS_RelativeHumidity_IsbL-0030_LatLon0.15_PT045H.grib2 2026-05-08 04:05 197K
20260508T00Z_MSC_GDPS_RelativeHumidity_IsbL-0050_LatLon0.15_PT045H.grib2 2026-05-08 04:05 347K
20260508T00Z_MSC_GDPS_RelativeHumidity_IsbL-0100_LatLon0.15_PT045H.grib2 2026-05-08 04:05 522K
20260508T00Z_MSC_GDPS_RelativeHumidity_IsbL-0150_LatLon0.15_PT045H.grib2 2026-05-08 04:05 693K
20260508T00Z_MSC_GDPS_RelativeHumidity_IsbL-0175_LatLon0.15_PT045H.grib2 2026-05-08 04:05 614K
20260508T00Z_MSC_GDPS_RelativeHumidity_IsbL-0200_LatLon0.15_PT045H.grib2 2026-05-08 04:05 721K
20260508T00Z_MSC_GDPS_RelativeHumidity_IsbL-0225_LatLon0.15_PT045H.grib2 2026-05-08 04:05 802K
20260508T00Z_MSC_GDPS_RelativeHumidity_IsbL-0250_LatLon0.15_PT045H.grib2 2026-05-08 04:05 878K
20260508T00Z_MSC_GDPS_RelativeHumidity_IsbL-0275_LatLon0.15_PT045H.grib2 2026-05-08 04:05 901K
20260508T00Z_MSC_GDPS_RelativeHumidity_IsbL-0300_LatLon0.15_PT045H.grib2 2026-05-08 04:05 938K
20260508T00Z_MSC_GDPS_RelativeHumidity_IsbL-0350_LatLon0.15_PT045H.grib2 2026-05-08 04:05 950K
20260508T00Z_MSC_GDPS_RelativeHumidity_IsbL-0400_LatLon0.15_PT045H.grib2 2026-05-08 04:05 971K
20260508T00Z_MSC_GDPS_RelativeHumidity_IsbL-0450_LatLon0.15_PT045H.grib2 2026-05-08 04:05 1.0M
20260508T00Z_MSC_GDPS_RelativeHumidity_IsbL-0500_LatLon0.15_PT045H.grib2 2026-05-08 04:05 1.0M
20260508T00Z_MSC_GDPS_RelativeHumidity_IsbL-0550_LatLon0.15_PT045H.grib2 2026-05-08 04:05 1.1M
20260508T00Z_MSC_GDPS_RelativeHumidity_IsbL-0600_LatLon0.15_PT045H.grib2 2026-05-08 04:05 1.0M
20260508T00Z_MSC_GDPS_RelativeHumidity_IsbL-0650_LatLon0.15_PT045H.grib2 2026-05-08 04:05 1.1M
20260508T00Z_MSC_GDPS_RelativeHumidity_IsbL-0700_LatLon0.15_PT045H.grib2 2026-05-08 04:05 1.1M
20260508T00Z_MSC_GDPS_RelativeHumidity_IsbL-0750_LatLon0.15_PT045H.grib2 2026-05-08 04:05 1.2M
20260508T00Z_MSC_GDPS_RelativeHumidity_IsbL-0800_LatLon0.15_PT045H.grib2 2026-05-08 04:05 1.2M
20260508T00Z_MSC_GDPS_RelativeHumidity_IsbL-0850_LatLon0.15_PT045H.grib2 2026-05-08 04:05 1.3M
20260508T00Z_MSC_GDPS_RelativeHumidity_IsbL-0875_LatLon0.15_PT045H.grib2 2026-05-08 04:05 1.3M
20260508T00Z_MSC_GDPS_RelativeHumidity_IsbL-0900_LatLon0.15_PT045H.grib2 2026-05-08 04:05 1.2M
20260508T00Z_MSC_GDPS_RelativeHumidity_IsbL-0925_LatLon0.15_PT045H.grib2 2026-05-08 04:05 1.2M
20260508T00Z_MSC_GDPS_RelativeHumidity_IsbL-0950_LatLon0.15_PT045H.grib2 2026-05-08 04:05 1.2M
20260508T00Z_MSC_GDPS_RelativeHumidity_IsbL-0970_LatLon0.15_PT045H.grib2 2026-05-08 04:05 1.2M
20260508T00Z_MSC_GDPS_RelativeHumidity_IsbL-0985_LatLon0.15_PT045H.grib2 2026-05-08 04:05 1.1M
20260508T00Z_MSC_GDPS_RelativeHumidity_IsbL-1000_LatLon0.15_PT045H.grib2 2026-05-08 04:05 1.1M
20260508T00Z_MSC_GDPS_RelativeHumidity_IsbL-1015_LatLon0.15_PT045H.grib2 2026-05-08 04:05 1.0M
20260508T00Z_MSC_GDPS_RelativeVorticity_IsbL-0200_LatLon0.15_PT045H.grib2 2026-05-08 04:05 1.5M
20260508T00Z_MSC_GDPS_RelativeVorticity_IsbL-0250_LatLon0.15_PT045H.grib2 2026-05-08 04:05 1.3M
20260508T00Z_MSC_GDPS_RelativeVorticity_IsbL-0500_LatLon0.15_PT045H.grib2 2026-05-08 04:05 1.2M
20260508T00Z_MSC_GDPS_RelativeVorticity_IsbL-0700_LatLon0.15_PT045H.grib2 2026-05-08 04:05 1.3M
20260508T00Z_MSC_GDPS_RelativeVorticity_IsbL-0850_LatLon0.15_PT045H.grib2 2026-05-08 04:05 1.6M
20260508T00Z_MSC_GDPS_Runoff-Accum_Sfc_LatLon0.15_PT045H.grib2 2026-05-08 04:05 118K
20260508T00Z_MSC_GDPS_SensibleHeatNetFlux_Sfc_LatLon0.15_PT045H.grib2 2026-05-08 04:05 454K
20260508T00Z_MSC_GDPS_ShowalterIndex_IsbL-0500_LatLon0.15_PT045H.grib2 2026-05-08 04:05 6.2M
20260508T00Z_MSC_GDPS_Snow-Accum1h_Sfc_LatLon0.15_PT045H.grib2 2026-05-08 04:05 1.1M
20260508T00Z_MSC_GDPS_Snow-Accum3h_Sfc_LatLon0.15_PT045H.grib2 2026-05-08 04:05 928K
20260508T00Z_MSC_GDPS_Snow-Accum_Sfc_LatLon0.15_PT045H.grib2 2026-05-08 04:05 1.8M
20260508T00Z_MSC_GDPS_SnowDensity_Sfc_LatLon0.15_PT045H.grib2 2026-05-08 04:05 254K
20260508T00Z_MSC_GDPS_SnowDepth_Sfc_LatLon0.15_PT045H.grib2 2026-05-08 04:05 1.7M
20260508T00Z_MSC_GDPS_SoilTemp_DBS-0to10cm_LatLon0.15_PT045H.grib2 2026-05-08 04:05 504K
20260508T00Z_MSC_GDPS_SoilTemp_Sfc_LatLon0.15_PT045H.grib2 2026-05-08 04:05 567K
20260508T00Z_MSC_GDPS_SoilVolumetricIceContent_Sfc_LatLon0.15_PT045H.grib2 2026-05-08 04:05 179K
20260508T00Z_MSC_GDPS_SoilVolumetricWaterContent_DBS-0to10cm_LatLon0.15_PT045H.grib2 2026-05-08 04:05 598K
20260508T00Z_MSC_GDPS_SoilVolumetricWaterContent_DBS-0to1cm_LatLon0.15_PT045H.grib2 2026-05-08 04:05 648K
20260508T00Z_MSC_GDPS_SpecificHumidity_AGL-120m_LatLon0.15_PT045H.grib2 2026-05-08 04:05 1.1M
20260508T00Z_MSC_GDPS_SpecificHumidity_AGL-2m_LatLon0.15_PT045H.grib2 2026-05-08 04:05 1.2M
20260508T00Z_MSC_GDPS_SpecificHumidity_AGL-40m_LatLon0.15_PT045H.grib2 2026-05-08 04:05 1.1M
20260508T00Z_MSC_GDPS_SpecificHumidity_AGL-80m_LatLon0.15_PT045H.grib2 2026-05-08 04:05 1.1M
20260508T00Z_MSC_GDPS_SpecificHumidity_IsbL-0001_LatLon0.15_PT045H.grib2 2026-05-08 04:05 1.3M
20260508T00Z_MSC_GDPS_SpecificHumidity_IsbL-0005_LatLon0.15_PT045H.grib2 2026-05-08 04:05 1.2M
20260508T00Z_MSC_GDPS_SpecificHumidity_IsbL-0010_LatLon0.15_PT045H.grib2 2026-05-08 04:05 1.3M
20260508T00Z_MSC_GDPS_SpecificHumidity_IsbL-0020_LatLon0.15_PT045H.grib2 2026-05-08 04:05 1.4M
20260508T00Z_MSC_GDPS_SpecificHumidity_IsbL-0030_LatLon0.15_PT045H.grib2 2026-05-08 04:05 1.3M
20260508T00Z_MSC_GDPS_SpecificHumidity_IsbL-0050_LatLon0.15_PT045H.grib2 2026-05-08 04:05 1.7M
20260508T00Z_MSC_GDPS_SpecificHumidity_IsbL-0100_LatLon0.15_PT045H.grib2 2026-05-08 04:05 1.3M
20260508T00Z_MSC_GDPS_SpecificHumidity_IsbL-0150_LatLon0.15_PT045H.grib2 2026-05-08 04:05 1.3M
20260508T00Z_MSC_GDPS_SpecificHumidity_IsbL-0175_LatLon0.15_PT045H.grib2 2026-05-08 04:05 1.3M
20260508T00Z_MSC_GDPS_SpecificHumidity_IsbL-0200_LatLon0.15_PT045H.grib2 2026-05-08 04:05 1.3M
20260508T00Z_MSC_GDPS_SpecificHumidity_IsbL-0225_LatLon0.15_PT045H.grib2 2026-05-08 04:05 1.3M
20260508T00Z_MSC_GDPS_SpecificHumidity_IsbL-0250_LatLon0.15_PT045H.grib2 2026-05-08 04:05 1.2M
20260508T00Z_MSC_GDPS_SpecificHumidity_IsbL-0275_LatLon0.15_PT045H.grib2 2026-05-08 04:05 1.4M
20260508T00Z_MSC_GDPS_SpecificHumidity_IsbL-0300_LatLon0.15_PT045H.grib2 2026-05-08 04:05 1.3M
20260508T00Z_MSC_GDPS_SpecificHumidity_IsbL-0350_LatLon0.15_PT045H.grib2 2026-05-08 04:05 1.3M
20260508T00Z_MSC_GDPS_SpecificHumidity_IsbL-0400_LatLon0.15_PT045H.grib2 2026-05-08 04:05 1.5M
20260508T00Z_MSC_GDPS_SpecificHumidity_IsbL-0450_LatLon0.15_PT045H.grib2 2026-05-08 04:05 1.3M
20260508T00Z_MSC_GDPS_SpecificHumidity_IsbL-0500_LatLon0.15_PT045H.grib2 2026-05-08 04:05 1.5M
20260508T00Z_MSC_GDPS_SpecificHumidity_IsbL-0550_LatLon0.15_PT045H.grib2 2026-05-08 04:05 1.6M
20260508T00Z_MSC_GDPS_SpecificHumidity_IsbL-0600_LatLon0.15_PT045H.grib2 2026-05-08 04:05 1.4M
20260508T00Z_MSC_GDPS_SpecificHumidity_IsbL-0650_LatLon0.15_PT045H.grib2 2026-05-08 04:05 1.5M
20260508T00Z_MSC_GDPS_SpecificHumidity_IsbL-0700_LatLon0.15_PT045H.grib2 2026-05-08 04:05 1.6M
20260508T00Z_MSC_GDPS_SpecificHumidity_IsbL-0750_LatLon0.15_PT045H.grib2 2026-05-08 04:05 1.7M
20260508T00Z_MSC_GDPS_SpecificHumidity_IsbL-0800_LatLon0.15_PT045H.grib2 2026-05-08 04:05 1.9M
20260508T00Z_MSC_GDPS_SpecificHumidity_IsbL-0850_LatLon0.15_PT045H.grib2 2026-05-08 04:05 1.9M
20260508T00Z_MSC_GDPS_SpecificHumidity_IsbL-0875_LatLon0.15_PT045H.grib2 2026-05-08 04:05 1.9M
20260508T00Z_MSC_GDPS_SpecificHumidity_IsbL-0900_LatLon0.15_PT045H.grib2 2026-05-08 04:05 1.6M
20260508T00Z_MSC_GDPS_SpecificHumidity_IsbL-0925_LatLon0.15_PT045H.grib2 2026-05-08 04:05 1.6M
20260508T00Z_MSC_GDPS_SpecificHumidity_IsbL-0950_LatLon0.15_PT045H.grib2 2026-05-08 04:05 1.6M
20260508T00Z_MSC_GDPS_SpecificHumidity_IsbL-0970_LatLon0.15_PT045H.grib2 2026-05-08 04:05 1.5M
20260508T00Z_MSC_GDPS_SpecificHumidity_IsbL-0985_LatLon0.15_PT045H.grib2 2026-05-08 04:05 1.5M
20260508T00Z_MSC_GDPS_SpecificHumidity_IsbL-1000_LatLon0.15_PT045H.grib2 2026-05-08 04:05 1.5M
20260508T00Z_MSC_GDPS_SpecificHumidity_IsbL-1015_LatLon0.15_PT045H.grib2 2026-05-08 04:05 1.5M
20260508T00Z_MSC_GDPS_SpecificHumidity_Sfc_LatLon0.15_PT045H.grib2 2026-05-08 04:05 666K
20260508T00Z_MSC_GDPS_Thickness_IsbL-0850to0700_LatLon0.15_PT045H.grib2 2026-05-08 04:05 476K
20260508T00Z_MSC_GDPS_Thickness_IsbL-1000to0500_LatLon0.15_PT045H.grib2 2026-05-08 04:05 381K
20260508T00Z_MSC_GDPS_Thickness_IsbL-1000to0850_LatLon0.15_PT045H.grib2 2026-05-08 04:05 494K
20260508T00Z_MSC_GDPS_TotalCloudCover_Sfc_LatLon0.15_PT045H.grib2 2026-05-08 04:05 820K
20260508T00Z_MSC_GDPS_TotalTotalsIndex_Sfc_LatLon0.15_PT045H.grib2 2026-05-08 04:05 6.2M
20260508T00Z_MSC_GDPS_UVIndex-ClearSky_Sfc_LatLon0.15_PT045H.grib2 2026-05-08 04:49 1.0M
20260508T00Z_MSC_GDPS_UVIndex_Sfc_LatLon0.15_PT045H.grib2 2026-05-08 04:49 1.5M
20260508T00Z_MSC_GDPS_UpwardLongwaveRadiationFlux_NTAtm_LatLon0.15_PT045H.grib2 2026-05-08 04:05 838K
20260508T00Z_MSC_GDPS_VerticalVelocity_IsbL-0200_LatLon0.15_PT045H.grib2 2026-05-08 04:05 951K
20260508T00Z_MSC_GDPS_VerticalVelocity_IsbL-0250_LatLon0.15_PT045H.grib2 2026-05-08 04:05 1.1M
20260508T00Z_MSC_GDPS_VerticalVelocity_IsbL-0500_LatLon0.15_PT045H.grib2 2026-05-08 04:05 1.3M
20260508T00Z_MSC_GDPS_VerticalVelocity_IsbL-0600_LatLon0.15_PT045H.grib2 2026-05-08 04:05 1.1M
20260508T00Z_MSC_GDPS_VerticalVelocity_IsbL-0700_LatLon0.15_PT045H.grib2 2026-05-08 04:05 1.2M
20260508T00Z_MSC_GDPS_VerticalVelocity_IsbL-0850_LatLon0.15_PT045H.grib2 2026-05-08 04:05 1.3M
20260508T00Z_MSC_GDPS_WindChill_Sfc_LatLon0.15_PT045H.grib2 2026-05-08 04:05 5.3M
20260508T00Z_MSC_GDPS_WindDir_AGL-10m_LatLon0.15_PT045H.grib2 2026-05-08 04:05 1.3M
20260508T00Z_MSC_GDPS_WindDir_AGL-120m_LatLon0.15_PT045H.grib2 2026-05-08 04:05 1.3M
20260508T00Z_MSC_GDPS_WindDir_AGL-40m_LatLon0.15_PT045H.grib2 2026-05-08 04:05 1.4M
20260508T00Z_MSC_GDPS_WindDir_AGL-80m_LatLon0.15_PT045H.grib2 2026-05-08 04:05 1.3M
20260508T00Z_MSC_GDPS_WindDir_IsbL-0001_LatLon0.15_PT045H.grib2 2026-05-08 04:05 669K
20260508T00Z_MSC_GDPS_WindDir_IsbL-0005_LatLon0.15_PT045H.grib2 2026-05-08 04:05 798K
20260508T00Z_MSC_GDPS_WindDir_IsbL-0010_LatLon0.15_PT045H.grib2 2026-05-08 04:05 855K
20260508T00Z_MSC_GDPS_WindDir_IsbL-0020_LatLon0.15_PT045H.grib2 2026-05-08 04:05 963K
20260508T00Z_MSC_GDPS_WindDir_IsbL-0030_LatLon0.15_PT045H.grib2 2026-05-08 04:05 1.0M
20260508T00Z_MSC_GDPS_WindDir_IsbL-0050_LatLon0.15_PT045H.grib2 2026-05-08 04:05 955K
20260508T00Z_MSC_GDPS_WindDir_IsbL-0100_LatLon0.15_PT045H.grib2 2026-05-08 04:05 1.0M
20260508T00Z_MSC_GDPS_WindDir_IsbL-0150_LatLon0.15_PT045H.grib2 2026-05-08 04:05 1.0M
20260508T00Z_MSC_GDPS_WindDir_IsbL-0175_LatLon0.15_PT045H.grib2 2026-05-08 04:05 1.1M
20260508T00Z_MSC_GDPS_WindDir_IsbL-0200_LatLon0.15_PT045H.grib2 2026-05-08 04:05 1.1M
20260508T00Z_MSC_GDPS_WindDir_IsbL-0225_LatLon0.15_PT045H.grib2 2026-05-08 04:05 1.1M
20260508T00Z_MSC_GDPS_WindDir_IsbL-0250_LatLon0.15_PT045H.grib2 2026-05-08 04:05 1.1M
20260508T00Z_MSC_GDPS_WindDir_IsbL-0275_LatLon0.15_PT045H.grib2 2026-05-08 04:05 1.2M
20260508T00Z_MSC_GDPS_WindDir_IsbL-0300_LatLon0.15_PT045H.grib2 2026-05-08 04:05 1.2M
20260508T00Z_MSC_GDPS_WindDir_IsbL-0350_LatLon0.15_PT045H.grib2 2026-05-08 04:05 1.2M
20260508T00Z_MSC_GDPS_WindDir_IsbL-0400_LatLon0.15_PT045H.grib2 2026-05-08 04:05 1.3M
20260508T00Z_MSC_GDPS_WindDir_IsbL-0450_LatLon0.15_PT045H.grib2 2026-05-08 04:05 1.3M
20260508T00Z_MSC_GDPS_WindDir_IsbL-0500_LatLon0.15_PT045H.grib2 2026-05-08 04:05 1.4M
20260508T00Z_MSC_GDPS_WindDir_IsbL-0550_LatLon0.15_PT045H.grib2 2026-05-08 04:05 1.4M
20260508T00Z_MSC_GDPS_WindDir_IsbL-0600_LatLon0.15_PT045H.grib2 2026-05-08 04:05 1.4M
20260508T00Z_MSC_GDPS_WindDir_IsbL-0650_LatLon0.15_PT045H.grib2 2026-05-08 04:05 1.5M
20260508T00Z_MSC_GDPS_WindDir_IsbL-0700_LatLon0.15_PT045H.grib2 2026-05-08 04:05 1.6M
20260508T00Z_MSC_GDPS_WindDir_IsbL-0750_LatLon0.15_PT045H.grib2 2026-05-08 04:05 1.7M
20260508T00Z_MSC_GDPS_WindDir_IsbL-0800_LatLon0.15_PT045H.grib2 2026-05-08 04:05 1.8M
20260508T00Z_MSC_GDPS_WindDir_IsbL-0850_LatLon0.15_PT045H.grib2 2026-05-08 04:05 1.9M
20260508T00Z_MSC_GDPS_WindDir_IsbL-0875_LatLon0.15_PT045H.grib2 2026-05-08 04:05 1.9M
20260508T00Z_MSC_GDPS_WindDir_IsbL-0900_LatLon0.15_PT045H.grib2 2026-05-08 04:05 1.9M
20260508T00Z_MSC_GDPS_WindDir_IsbL-0925_LatLon0.15_PT045H.grib2 2026-05-08 04:05 1.9M
20260508T00Z_MSC_GDPS_WindDir_IsbL-0950_LatLon0.15_PT045H.grib2 2026-05-08 04:05 1.9M
20260508T00Z_MSC_GDPS_WindDir_IsbL-0970_LatLon0.15_PT045H.grib2 2026-05-08 04:05 2.0M
20260508T00Z_MSC_GDPS_WindDir_IsbL-0985_LatLon0.15_PT045H.grib2 2026-05-08 04:05 2.0M
20260508T00Z_MSC_GDPS_WindDir_IsbL-1000_LatLon0.15_PT045H.grib2 2026-05-08 04:05 2.0M
20260508T00Z_MSC_GDPS_WindDir_IsbL-1015_LatLon0.15_PT045H.grib2 2026-05-08 04:05 2.0M
20260508T00Z_MSC_GDPS_WindGust-Max_AGL-10m_LatLon0.15_PT045H.grib2 2026-05-08 04:05 2.2M
20260508T00Z_MSC_GDPS_WindGust-Min_AGL-10m_LatLon0.15_PT045H.grib2 2026-05-08 04:05 2.1M
20260508T00Z_MSC_GDPS_WindGust_AGL-10m_LatLon0.15_PT045H.grib2 2026-05-08 04:05 2.1M
20260508T00Z_MSC_GDPS_WindSpeed_AGL-10m_LatLon0.15_PT045H.grib2 2026-05-08 04:05 1.1M
20260508T00Z_MSC_GDPS_WindSpeed_AGL-120m_LatLon0.15_PT045H.grib2 2026-05-08 04:05 1.3M
20260508T00Z_MSC_GDPS_WindSpeed_AGL-40m_LatLon0.15_PT045H.grib2 2026-05-08 04:05 1.2M
20260508T00Z_MSC_GDPS_WindSpeed_AGL-80m_LatLon0.15_PT045H.grib2 2026-05-08 04:05 1.3M
20260508T00Z_MSC_GDPS_WindSpeed_IsbL-0001_LatLon0.15_PT045H.grib2 2026-05-08 04:05 651K
20260508T00Z_MSC_GDPS_WindSpeed_IsbL-0005_LatLon0.15_PT045H.grib2 2026-05-08 04:05 706K
20260508T00Z_MSC_GDPS_WindSpeed_IsbL-0010_LatLon0.15_PT045H.grib2 2026-05-08 04:05 639K
20260508T00Z_MSC_GDPS_WindSpeed_IsbL-0020_LatLon0.15_PT045H.grib2 2026-05-08 04:05 678K
20260508T00Z_MSC_GDPS_WindSpeed_IsbL-0030_LatLon0.15_PT045H.grib2 2026-05-08 04:05 690K
20260508T00Z_MSC_GDPS_WindSpeed_IsbL-0050_LatLon0.15_PT045H.grib2 2026-05-08 04:05 916K
20260508T00Z_MSC_GDPS_WindSpeed_IsbL-0100_LatLon0.15_PT045H.grib2 2026-05-08 04:05 1.1M
20260508T00Z_MSC_GDPS_WindSpeed_IsbL-0150_LatLon0.15_PT045H.grib2 2026-05-08 04:05 952K
20260508T00Z_MSC_GDPS_WindSpeed_IsbL-0175_LatLon0.15_PT045H.grib2 2026-05-08 04:05 1.0M
20260508T00Z_MSC_GDPS_WindSpeed_IsbL-0200_LatLon0.15_PT045H.grib2 2026-05-08 04:05 1.1M
20260508T00Z_MSC_GDPS_WindSpeed_IsbL-0225_LatLon0.15_PT045H.grib2 2026-05-08 04:05 1.1M
20260508T00Z_MSC_GDPS_WindSpeed_IsbL-0250_LatLon0.15_PT045H.grib2 2026-05-08 04:05 1.1M
20260508T00Z_MSC_GDPS_WindSpeed_IsbL-0275_LatLon0.15_PT045H.grib2 2026-05-08 04:05 1.1M
20260508T00Z_MSC_GDPS_WindSpeed_IsbL-0300_LatLon0.15_PT045H.grib2 2026-05-08 04:05 1.1M
20260508T00Z_MSC_GDPS_WindSpeed_IsbL-0350_LatLon0.15_PT045H.grib2 2026-05-08 04:05 1.1M
20260508T00Z_MSC_GDPS_WindSpeed_IsbL-0400_LatLon0.15_PT045H.grib2 2026-05-08 04:05 1.1M
20260508T00Z_MSC_GDPS_WindSpeed_IsbL-0450_LatLon0.15_PT045H.grib2 2026-05-08 04:05 1.1M
20260508T00Z_MSC_GDPS_WindSpeed_IsbL-0500_LatLon0.15_PT045H.grib2 2026-05-08 04:05 1.1M
20260508T00Z_MSC_GDPS_WindSpeed_IsbL-0550_LatLon0.15_PT045H.grib2 2026-05-08 04:05 1.1M
20260508T00Z_MSC_GDPS_WindSpeed_IsbL-0600_LatLon0.15_PT045H.grib2 2026-05-08 04:05 1.1M
20260508T00Z_MSC_GDPS_WindSpeed_IsbL-0650_LatLon0.15_PT045H.grib2 2026-05-08 04:05 1.2M
20260508T00Z_MSC_GDPS_WindSpeed_IsbL-0700_LatLon0.15_PT045H.grib2 2026-05-08 04:05 1.5M
20260508T00Z_MSC_GDPS_WindSpeed_IsbL-0750_LatLon0.15_PT045H.grib2 2026-05-08 04:05 1.6M
20260508T00Z_MSC_GDPS_WindSpeed_IsbL-0800_LatLon0.15_PT045H.grib2 2026-05-08 04:05 1.7M
20260508T00Z_MSC_GDPS_WindSpeed_IsbL-0850_LatLon0.15_PT045H.grib2 2026-05-08 04:05 1.7M
20260508T00Z_MSC_GDPS_WindSpeed_IsbL-0875_LatLon0.15_PT045H.grib2 2026-05-08 04:05 1.8M
20260508T00Z_MSC_GDPS_WindSpeed_IsbL-0900_LatLon0.15_PT045H.grib2 2026-05-08 04:05 1.8M
20260508T00Z_MSC_GDPS_WindSpeed_IsbL-0925_LatLon0.15_PT045H.grib2 2026-05-08 04:05 1.8M
20260508T00Z_MSC_GDPS_WindSpeed_IsbL-0950_LatLon0.15_PT045H.grib2 2026-05-08 04:05 1.9M
20260508T00Z_MSC_GDPS_WindSpeed_IsbL-0970_LatLon0.15_PT045H.grib2 2026-05-08 04:05 1.9M
20260508T00Z_MSC_GDPS_WindSpeed_IsbL-0985_LatLon0.15_PT045H.grib2 2026-05-08 04:05 1.9M
20260508T00Z_MSC_GDPS_WindSpeed_IsbL-1000_LatLon0.15_PT045H.grib2 2026-05-08 04:05 1.8M
20260508T00Z_MSC_GDPS_WindSpeed_IsbL-1015_LatLon0.15_PT045H.grib2 2026-05-08 04:05 1.8M
20260508T00Z_MSC_GDPS_WindU_AGL-10m_LatLon0.15_PT045H.grib2 2026-05-08 04:05 1.3M
20260508T00Z_MSC_GDPS_WindU_AGL-120m_LatLon0.15_PT045H.grib2 2026-05-08 04:05 1.0M
20260508T00Z_MSC_GDPS_WindU_AGL-40m_LatLon0.15_PT045H.grib2 2026-05-08 04:05 971K
20260508T00Z_MSC_GDPS_WindU_AGL-80m_LatLon0.15_PT045H.grib2 2026-05-08 04:05 1.0M
20260508T00Z_MSC_GDPS_WindU_IsbL-0001_LatLon0.15_PT045H.grib2 2026-05-08 04:05 511K
20260508T00Z_MSC_GDPS_WindU_IsbL-0005_LatLon0.15_PT045H.grib2 2026-05-08 04:05 706K
20260508T00Z_MSC_GDPS_WindU_IsbL-0010_LatLon0.15_PT045H.grib2 2026-05-08 04:05 713K
20260508T00Z_MSC_GDPS_WindU_IsbL-0020_LatLon0.15_PT045H.grib2 2026-05-08 04:05 743K
20260508T00Z_MSC_GDPS_WindU_IsbL-0030_LatLon0.15_PT045H.grib2 2026-05-08 04:05 756K
20260508T00Z_MSC_GDPS_WindU_IsbL-0050_LatLon0.15_PT045H.grib2 2026-05-08 04:05 778K
20260508T00Z_MSC_GDPS_WindU_IsbL-0100_LatLon0.15_PT045H.grib2 2026-05-08 04:05 876K
20260508T00Z_MSC_GDPS_WindU_IsbL-0150_LatLon0.15_PT045H.grib2 2026-05-08 04:05 1.0M
20260508T00Z_MSC_GDPS_WindU_IsbL-0175_LatLon0.15_PT045H.grib2 2026-05-08 04:05 1.0M
20260508T00Z_MSC_GDPS_WindU_IsbL-0200_LatLon0.15_PT045H.grib2 2026-05-08 04:05 1.1M
20260508T00Z_MSC_GDPS_WindU_IsbL-0225_LatLon0.15_PT045H.grib2 2026-05-08 04:05 860K
20260508T00Z_MSC_GDPS_WindU_IsbL-0250_LatLon0.15_PT045H.grib2 2026-05-08 04:05 861K
20260508T00Z_MSC_GDPS_WindU_IsbL-0275_LatLon0.15_PT045H.grib2 2026-05-08 04:05 889K
20260508T00Z_MSC_GDPS_WindU_IsbL-0300_LatLon0.15_PT045H.grib2 2026-05-08 04:05 881K
20260508T00Z_MSC_GDPS_WindU_IsbL-0350_LatLon0.15_PT045H.grib2 2026-05-08 04:05 1.1M
20260508T00Z_MSC_GDPS_WindU_IsbL-0400_LatLon0.15_PT045H.grib2 2026-05-08 04:05 1.1M
20260508T00Z_MSC_GDPS_WindU_IsbL-0450_LatLon0.15_PT045H.grib2 2026-05-08 04:05 1.1M
20260508T00Z_MSC_GDPS_WindU_IsbL-0500_LatLon0.15_PT045H.grib2 2026-05-08 04:05 1.1M
20260508T00Z_MSC_GDPS_WindU_IsbL-0550_LatLon0.15_PT045H.grib2 2026-05-08 04:05 1.1M
20260508T00Z_MSC_GDPS_WindU_IsbL-0600_LatLon0.15_PT045H.grib2 2026-05-08 04:05 1.2M
20260508T00Z_MSC_GDPS_WindU_IsbL-0650_LatLon0.15_PT045H.grib2 2026-05-08 04:05 1.2M
20260508T00Z_MSC_GDPS_WindU_IsbL-0700_LatLon0.15_PT045H.grib2 2026-05-08 04:05 1.2M
20260508T00Z_MSC_GDPS_WindU_IsbL-0750_LatLon0.15_PT045H.grib2 2026-05-08 04:05 1.3M
20260508T00Z_MSC_GDPS_WindU_IsbL-0800_LatLon0.15_PT045H.grib2 2026-05-08 04:05 1.4M
20260508T00Z_MSC_GDPS_WindU_IsbL-0850_LatLon0.15_PT045H.grib2 2026-05-08 04:05 1.4M
20260508T00Z_MSC_GDPS_WindU_IsbL-0875_LatLon0.15_PT045H.grib2 2026-05-08 04:05 1.5M
20260508T00Z_MSC_GDPS_WindU_IsbL-0900_LatLon0.15_PT045H.grib2 2026-05-08 04:05 1.5M
20260508T00Z_MSC_GDPS_WindU_IsbL-0925_LatLon0.15_PT045H.grib2 2026-05-08 04:05 1.5M
20260508T00Z_MSC_GDPS_WindU_IsbL-0950_LatLon0.15_PT045H.grib2 2026-05-08 04:05 1.4M
20260508T00Z_MSC_GDPS_WindU_IsbL-0970_LatLon0.15_PT045H.grib2 2026-05-08 04:05 1.4M
20260508T00Z_MSC_GDPS_WindU_IsbL-0985_LatLon0.15_PT045H.grib2 2026-05-08 04:05 1.4M
20260508T00Z_MSC_GDPS_WindU_IsbL-1000_LatLon0.15_PT045H.grib2 2026-05-08 04:05 1.4M
20260508T00Z_MSC_GDPS_WindU_IsbL-1015_LatLon0.15_PT045H.grib2 2026-05-08 04:05 1.3M
20260508T00Z_MSC_GDPS_WindV_AGL-10m_LatLon0.15_PT045H.grib2 2026-05-08 04:05 1.3M
20260508T00Z_MSC_GDPS_WindV_AGL-120m_LatLon0.15_PT045H.grib2 2026-05-08 04:05 1.0M
20260508T00Z_MSC_GDPS_WindV_AGL-40m_LatLon0.15_PT045H.grib2 2026-05-08 04:05 972K
20260508T00Z_MSC_GDPS_WindV_AGL-80m_LatLon0.15_PT045H.grib2 2026-05-08 04:05 1.0M
20260508T00Z_MSC_GDPS_WindV_IsbL-0001_LatLon0.15_PT045H.grib2 2026-05-08 04:05 727K
20260508T00Z_MSC_GDPS_WindV_IsbL-0005_LatLon0.15_PT045H.grib2 2026-05-08 04:05 781K
20260508T00Z_MSC_GDPS_WindV_IsbL-0010_LatLon0.15_PT045H.grib2 2026-05-08 04:05 896K
20260508T00Z_MSC_GDPS_WindV_IsbL-0020_LatLon0.15_PT045H.grib2 2026-05-08 04:05 944K
20260508T00Z_MSC_GDPS_WindV_IsbL-0030_LatLon0.15_PT045H.grib2 2026-05-08 04:05 953K
20260508T00Z_MSC_GDPS_WindV_IsbL-0050_LatLon0.15_PT045H.grib2 2026-05-08 04:05 913K
20260508T00Z_MSC_GDPS_WindV_IsbL-0100_LatLon0.15_PT045H.grib2 2026-05-08 04:05 864K
20260508T00Z_MSC_GDPS_WindV_IsbL-0150_LatLon0.15_PT045H.grib2 2026-05-08 04:05 1.0M
20260508T00Z_MSC_GDPS_WindV_IsbL-0175_LatLon0.15_PT045H.grib2 2026-05-08 04:05 821K
20260508T00Z_MSC_GDPS_WindV_IsbL-0200_LatLon0.15_PT045H.grib2 2026-05-08 04:05 848K
20260508T00Z_MSC_GDPS_WindV_IsbL-0225_LatLon0.15_PT045H.grib2 2026-05-08 04:05 912K
20260508T00Z_MSC_GDPS_WindV_IsbL-0250_LatLon0.15_PT045H.grib2 2026-05-08 04:05 914K
20260508T00Z_MSC_GDPS_WindV_IsbL-0275_LatLon0.15_PT045H.grib2 2026-05-08 04:05 940K
20260508T00Z_MSC_GDPS_WindV_IsbL-0300_LatLon0.15_PT045H.grib2 2026-05-08 04:05 932K
20260508T00Z_MSC_GDPS_WindV_IsbL-0350_LatLon0.15_PT045H.grib2 2026-05-08 04:05 944K
20260508T00Z_MSC_GDPS_WindV_IsbL-0400_LatLon0.15_PT045H.grib2 2026-05-08 04:05 890K
20260508T00Z_MSC_GDPS_WindV_IsbL-0450_LatLon0.15_PT045H.grib2 2026-05-08 04:05 892K
20260508T00Z_MSC_GDPS_WindV_IsbL-0500_LatLon0.15_PT045H.grib2 2026-05-08 04:05 896K
20260508T00Z_MSC_GDPS_WindV_IsbL-0550_LatLon0.15_PT045H.grib2 2026-05-08 04:05 1.1M
20260508T00Z_MSC_GDPS_WindV_IsbL-0600_LatLon0.15_PT045H.grib2 2026-05-08 04:05 1.1M
20260508T00Z_MSC_GDPS_WindV_IsbL-0650_LatLon0.15_PT045H.grib2 2026-05-08 04:05 1.2M
20260508T00Z_MSC_GDPS_WindV_IsbL-0700_LatLon0.15_PT045H.grib2 2026-05-08 04:05 1.2M
20260508T00Z_MSC_GDPS_WindV_IsbL-0750_LatLon0.15_PT045H.grib2 2026-05-08 04:05 1.3M
20260508T00Z_MSC_GDPS_WindV_IsbL-0800_LatLon0.15_PT045H.grib2 2026-05-08 04:05 1.4M
20260508T00Z_MSC_GDPS_WindV_IsbL-0850_LatLon0.15_PT045H.grib2 2026-05-08 04:05 1.4M
20260508T00Z_MSC_GDPS_WindV_IsbL-0875_LatLon0.15_PT045H.grib2 2026-05-08 04:05 1.4M
20260508T00Z_MSC_GDPS_WindV_IsbL-0900_LatLon0.15_PT045H.grib2 2026-05-08 04:05 1.5M
20260508T00Z_MSC_GDPS_WindV_IsbL-0925_LatLon0.15_PT045H.grib2 2026-05-08 04:05 1.5M
20260508T00Z_MSC_GDPS_WindV_IsbL-0950_LatLon0.15_PT045H.grib2 2026-05-08 04:05 1.4M
20260508T00Z_MSC_GDPS_WindV_IsbL-0970_LatLon0.15_PT045H.grib2 2026-05-08 04:05 1.4M
20260508T00Z_MSC_GDPS_WindV_IsbL-0985_LatLon0.15_PT045H.grib2 2026-05-08 04:05 1.4M
20260508T00Z_MSC_GDPS_WindV_IsbL-1000_LatLon0.15_PT045H.grib2 2026-05-08 04:05 1.4M
20260508T00Z_MSC_GDPS_WindV_IsbL-1015_LatLon0.15_PT045H.grib2 2026-05-08 04:05 1.3M